Location: Unspecified
(0.0000°N, 0.0000°E)
Time: 05:23:39
(UTC+00:00)

AAUSAT CUBESAT 2 - Pass Details

Date: 19 July 2020
Orbit: 574 x 589 km, 97.5° (Epoch: 13 August)

Event Time Altitude Azimuth Distance (km) Brightness Sun altitude
Rises 04:56:53 0° 38° (NE) 2,802 ? -16.2°
Reaches altitude 10° 04:59:34 10° 56° (ENE) 1,903 ? -15.6°
Maximum altitude 05:02:29 19° 102° (ESE) 1,423 ? -14.9°
Drops below altitude 10° 05:05:23 10° 147° (SSE) 1,904 ? -14.2°
Sets 05:08:03 0° 165° (SSE) 2,803 ? -13.6°
